Time,TemperatureF,DewpointF,PressureIn,WindDirection,WindDirectionDegrees,WindSpeedMPH,WindSpeedGustMPH,Humidity,HourlyPrecipIn,Conditions,Clouds,dailyrainin,SolarRadiationWatts/m^2,SoftwareType,DateUTC
2013-07-09 00:00:00,72.0,69.2,29.88,NNE,17,0.0,0.0,91,0.00,,---,0.00,0.00,VWS V14.01,2013-07-09 05:00:00,
2013-07-09 00:01:00,72.0,69.2,29.88,NNE,17,0.0,0.0,91,0.00,,---,0.00,0.00,VWS V14.01,2013-07-09 05:01:00,
2013-07-09 00:05:00,72.1,69.3,29.88,NNE,17,0.0,0.0,91,0.00,,---,0.00,0.00,VWS V14.01,2013-07-09 05:05:00,
2013-07-09 00:10:00,72.1,69.3,29.88,NNE,17,0.0,0.0,91,0.00,,---,0.00,0.00,VWS V14.01,2013-07-09 05:10:00,
2013-07-09 00:11:00,72.1,69.3,29.88,NNE,17,0.0,0.0,91,0.00,,---,0.00,0.00,VWS V14.01,2013-07-09 05:11:00,
2013-07-09 00:15:00,72.2,69.4,29.88,NNE,17,0.0,0.0,91,0.00,,---,0.00,0.00,VWS V14.01,2013-07-09 05:15:00,
2013-07-09 00:16:00,72.2,69.4,29.88,NNE,17,0.0,0.0,91,0.00,,---,0.00,0.00,VWS V14.01,2013-07-09 05:16:00,
2013-07-09 00:20:00,72.2,69.4,29.88,NNE,22,0.0,2.0,91,0.00,,---,0.00,0.00,VWS V14.01,2013-07-09 05:20:00,
2013-07-09 00:25:00,72.4,69.3,29.87,NNE,22,0.0,1.0,90,0.00,,---,0.00,0.00,VWS V14.01,2013-07-09 05:25:00,
2013-07-09 00:30:00,72.6,69.5,29.87,NNE,22,0.0,0.0,90,0.00,,---,0.00,0.00,VWS V14.01,2013-07-09 05:30:00,
2013-07-09 00:35:00,72.7,69.6,29.87,NNE,22,0.0,1.0,90,0.00,,---,0.00,0.00,VWS V14.01,2013-07-09 05:35:00,
2013-07-09 00:40:00,72.8,69.4,29.87,NNE,22,1.0,3.0,89,0.00,,---,0.00,0.00,VWS V14.01,2013-07-09 05:40:00,
2013-07-09 00:45:00,73.0,69.6,29.87,NNE,22,0.0,3.0,89,0.00,,---,0.00,0.00,VWS V14.01,2013-07-09 05:45:00,
2013-07-09 00:50:00,73.2,69.4,29.86,NNE,22,0.0,0.0,88,0.00,,---,0.00,0.00,VWS V14.01,2013-07-09 05:50:00,
2013-07-09 00:55:00,73.3,69.5,29.86,NNE,22,0.0,0.0,88,0.00,,---,0.00,0.00,VWS V14.01,2013-07-09 05:55:00,
2013-07-09 01:00:00,73.3,69.5,29.86,NNE,22,0.0,0.0,88,0.00,,---,0.00,0.00,VWS V14.01,2013-07-09 06:00:00,
2013-07-09 01:05:00,73.2,69.4,29.86,NNE,22,0.0,0.0,88,0.00,,---,0.00,0.00,VWS V14.01,2013-07-09 06:05:00,
2013-07-09 01:10:00,73.1,69.3,29.86,NNE,22,0.0,0.0,88,0.00,,---,0.00,0.00,VWS V14.01,2013-07-09 06:10:00,
2013-07-09 01:15:00,73.1,69.3,29.86,NNE,22,0.0,0.0,88,0.00,,---,0.00,0.00,VWS V14.01,2013-07-09 06:15:00,
2013-07-09 01:20:00,73.1,69.3,29.86,NNE,22,0.0,0.0,88,0.00,,---,0.00,0.00,VWS V14.01,2013-07-09 06:20:00,
2013-07-09 01:25:00,73.0,69.2,29.86,NNE,22,0.0,0.0,88,0.00,,---,0.00,0.00,VWS V14.01,2013-07-09 06:25:00,
2013-07-09 01:30:00,73.0,69.2,29.86,NNE,22,0.0,1.0,88,0.00,,---,0.00,0.00,VWS V14.01,2013-07-09 06:30:00,
2013-07-09 01:35:00,73.1,69.3,29.86,NNE,22,0.0,0.0,88,0.00,,---,0.00,0.00,VWS V14.01,2013-07-09 06:35:00,
2013-07-09 01:40:00,73.1,69.3,29.86,NNE,22,0.0,1.0,88,0.00,,---,0.00,0.00,VWS V14.01,2013-07-09 06:40:00,
2013-07-09 01:45:00,73.3,69.5,29.86,NNE,22,0.0,1.0,88,0.00,,---,0.00,0.00,VWS V14.01,2013-07-09 06:45:00,
2013-07-09 01:50:00,73.3,69.5,29.86,NNE,22,0.0,0.0,88,0.00,,---,0.00,0.00,VWS V14.01,2013-07-09 06:50:00,
2013-07-09 01:55:00,73.3,69.5,29.86,NNE,22,0.0,1.0,88,0.00,,---,0.00,0.00,VWS V14.01,2013-07-09 06:55:00,
2013-07-09 02:00:00,73.4,69.6,29.86,NNE,22,0.0,0.0,88,0.00,,---,0.00,0.00,VWS V14.01,2013-07-09 07:00:00,
2013-07-09 02:05:00,73.4,69.6,29.85,NNE,22,0.0,1.0,88,0.00,,---,0.00,0.00,VWS V14.01,2013-07-09 07:05:00,
2013-07-09 02:10:00,73.4,69.6,29.84,NNE,22,0.0,1.0,88,0.00,,---,0.00,0.00,VWS V14.01,2013-07-09 07:10:00,
2013-07-09 02:15:00,73.4,69.6,29.85,NNE,22,0.0,3.0,88,0.00,,---,0.00,0.00,VWS V14.01,2013-07-09 07:15:00,
2013-07-09 02:20:00,73.4,69.6,29.84,NNE,22,0.0,3.0,88,0.00,,---,0.00,0.00,VWS V14.01,2013-07-09 07:20:00,
2013-07-09 02:25:00,73.4,69.3,29.84,NNE,22,1.0,4.0,87,0.00,,---,0.00,0.00,VWS V14.01,2013-07-09 07:25:00,
2013-07-09 02:30:00,73.4,69.3,29.83,NNE,22,1.0,4.0,87,0.00,,---,0.00,0.00,VWS V14.01,2013-07-09 07:30:00,
2013-07-09 02:35:00,73.5,69.4,29.83,NNE,22,0.0,4.0,87,0.00,,---,0.00,0.00,VWS V14.01,2013-07-09 07:35:00,
2013-07-09 02:40:00,73.5,69.4,29.83,NNE,22,0.0,1.0,87,0.00,,---,0.00,0.00,VWS V14.01,2013-07-09 07:40:00,
2013-07-09 02:45:00,73.5,69.4,29.82,NNE,22,0.0,1.0,87,0.00,,---,0.00,0.00,VWS V14.01,2013-07-09 07:45:00,
2013-07-09 02:50:00,73.4,69.3,29.82,NNE,22,0.0,1.0,87,0.00,,---,0.00,0.00,VWS V14.01,2013-07-09 07:50:00,
2013-07-09 02:55:00,73.3,69.2,29.82,NNE,22,0.0,0.0,87,0.00,,---,0.00,0.00,VWS V14.01,2013-07-09 07:55:00,
2013-07-09 03:00:00,73.2,69.1,29.82,NNE,22,0.0,0.0,87,0.00,,---,0.00,0.00,VWS V14.01,2013-07-09 08:00:00,
2013-07-09 03:05:00,73.0,69.2,29.82,NNE,22,0.0,0.0,88,0.00,,---,0.00,0.00,VWS V14.01,2013-07-09 08:05:00,
2013-07-09 03:10:00,72.9,69.1,29.82,NNE,22,0.0,1.0,88,0.00,,---,0.00,0.00,VWS V14.01,2013-07-09 08:10:00,
2013-07-09 03:15:00,72.8,69.0,29.82,NNE,22,0.0,0.0,88,0.00,,---,0.00,0.00,VWS V14.01,2013-07-09 08:15:00,
2013-07-09 03:20:00,72.7,69.3,29.81,NNE,22,0.0,1.0,89,0.00,,---,0.00,0.00,VWS V14.01,2013-07-09 08:20:00,
2013-07-09 03:25:00,72.6,69.2,29.81,NNE,22,0.0,1.0,89,0.00,,---,0.00,0.00,VWS V14.01,2013-07-09 08:25:00,
2013-07-09 03:30:00,72.6,69.2,29.81,NNE,22,0.0,0.0,89,0.00,,---,0.00,0.00,VWS V14.01,2013-07-09 08:30:00,
2013-07-09 03:35:00,72.5,69.1,29.81,NNE,22,0.0,0.0,89,0.00,,---,0.00,0.00,VWS V14.01,2013-07-09 08:35:00,
2013-07-09 03:40:00,72.3,68.9,29.81,NNE,22,0.0,0.0,89,0.00,,---,0.00,0.00,VWS V14.01,2013-07-09 08:40:00,
2013-07-09 03:45:00,72.2,69.1,29.81,NNE,22,0.0,0.0,90,0.00,,---,0.00,0.00,VWS V14.01,2013-07-09 08:45:00,
2013-07-09 03:50:00,72.2,69.1,29.81,NNE,22,0.0,0.0,90,0.00,,---,0.00,0.00,VWS V14.01,2013-07-09 08:50:00,
2013-07-09 03:55:00,72.1,69.0,29.81,NNE,22,0.0,0.0,90,0.00,,---,0.00,0.00,VWS V14.01,2013-07-09 08:55:00,
2013-07-09 04:00:00,72.1,69.0,29.81,NNE,22,0.0,0.0,90,0.00,,---,0.00,0.00,VWS V14.01,2013-07-09 09:00:00,
2013-07-09 04:05:00,72.1,69.0,29.80,NNE,22,0.0,0.0,90,0.00,,---,0.00,0.00,VWS V14.01,2013-07-09 09:05:00,
2013-07-09 04:10:00,72.1,69.0,29.80,NNE,22,0.0,1.0,90,0.00,,---,0.00,0.00,VWS V14.01,2013-07-09 09:10:00,
2013-07-09 04:15:00,72.2,69.1,29.79,NNE,22,0.0,0.0,90,0.00,,---,0.00,0.00,VWS V14.01,2013-07-09 09:15:00,
2013-07-09 04:20:00,72.2,69.1,29.79,NNE,22,0.0,3.0,90,0.00,,---,0.00,0.00,VWS V14.01,2013-07-09 09:20:00,
2013-07-09 04:25:00,72.3,69.2,29.79,NNE,22,0.0,2.0,90,0.00,,---,0.00,0.00,VWS V14.01,2013-07-09 09:25:00,
2013-07-09 04:30:00,72.5,69.4,29.79,NNE,22,0.0,1.0,90,0.00,,---,0.00,0.00,VWS V14.01,2013-07-09 09:30:00,
2013-07-09 04:35:00,72.6,69.5,29.79,NNE,22,0.0,1.0,90,0.00,,---,0.00,0.00,VWS V14.01,2013-07-09 09:35:00,
2013-07-09 04:40:00,72.7,69.3,29.79,NNE,22,0.0,1.0,89,0.00,,---,0.00,0.00,VWS V14.01,2013-07-09 09:40:00,
2013-07-09 04:45:00,72.8,69.4,29.79,NNE,22,0.0,3.0,89,0.00,,---,0.00,0.00,VWS V14.01,2013-07-09 09:45:00,
2013-07-09 04:50:00,72.8,69.4,29.79,NNE,22,0.0,0.0,89,0.00,,---,0.00,0.00,VWS V14.01,2013-07-09 09:50:00,
2013-07-09 04:55:00,72.9,69.5,29.80,NNE,22,0.0,0.0,89,0.00,,---,0.00,0.00,VWS V14.01,2013-07-09 09:55:00,
2013-07-09 05:00:00,72.9,69.5,29.80,NNE,22,0.0,0.0,89,0.00,,---,0.00,0.00,VWS V14.01,2013-07-09 10:00:00,
2013-07-09 05:05:00,72.9,69.5,29.80,NNE,22,0.0,0.0,89,0.00,,---,0.00,0.00,VWS V14.01,2013-07-09 10:05:00,
2013-07-09 05:10:00,73.0,69.6,29.79,NNE,22,0.0,0.0,89,0.00,,---,0.00,0.00,VWS V14.01,2013-07-09 10:10:00,
2013-07-09 05:15:00,73.0,69.6,29.79,NNE,22,0.0,3.0,89,0.00,,---,0.00,0.00,VWS V14.01,2013-07-09 10:15:00,
2013-07-09 05:20:00,73.1,69.7,29.79,NNE,22,0.0,1.0,89,0.00,,---,0.00,0.00,VWS V14.01,2013-07-09 10:20:00,
2013-07-09 05:25:00,73.2,69.8,29.79,NNE,22,1.0,3.0,89,0.00,,---,0.00,1.00,VWS V14.01,2013-07-09 10:25:00,
2013-07-09 05:30:00,73.3,69.9,29.78,NNE,22,0.0,2.0,89,0.00,,---,0.00,7.00,VWS V14.01,2013-07-09 10:30:00,
2013-07-09 05:35:00,73.4,70.0,29.78,NNE,22,1.0,4.0,89,0.00,,---,0.00,9.00,VWS V14.01,2013-07-09 10:35:00,
2013-07-09 05:40:00,73.5,70.1,29.78,NNE,22,0.0,3.0,89,0.00,,---,0.00,11.00,VWS V14.01,2013-07-09 10:40:00,
2013-07-09 05:45:00,73.7,69.9,29.78,NNE,22,0.0,3.0,88,0.00,,---,0.00,10.00,VWS V14.01,2013-07-09 10:45:00,
2013-07-09 05:50:00,73.8,70.0,29.77,NNE,22,1.0,4.0,88,0.00,,---,0.00,12.00,VWS V14.01,2013-07-09 10:50:00,
2013-07-09 05:55:00,74.0,70.2,29.76,NNE,22,2.0,4.0,88,0.00,,---,0.00,11.00,VWS V14.01,2013-07-09 10:55:00,
2013-07-09 06:00:00,74.2,70.1,29.76,NNE,22,0.0,3.0,87,0.00,,---,0.00,16.00,VWS V14.01,2013-07-09 11:00:00,
2013-07-09 06:05:00,74.3,70.2,29.76,NNE,22,1.0,4.0,87,0.00,,---,0.00,21.00,VWS V14.01,2013-07-09 11:05:00,
2013-07-09 06:10:00,74.4,70.3,29.76,NNE,22,1.0,3.0,87,0.00,,---,0.00,27.00,VWS V14.01,2013-07-09 11:10:00,
2013-07-09 06:15:00,74.5,70.4,29.75,NNE,22,0.0,4.0,87,0.00,,---,0.00,27.00,VWS V14.01,2013-07-09 11:15:00,
2013-07-09 06:20:00,74.6,70.1,29.75,NE,45,1.0,6.0,86,0.00,,---,0.00,29.00,VWS V14.01,2013-07-09 11:20:00,
2013-07-09 06:25:00,74.6,70.1,29.75,NE,45,0.0,1.0,86,0.00,,---,0.00,32.00,VWS V14.01,2013-07-09 11:25:00,
2013-07-09 06:30:00,74.6,70.1,29.75,NE,45,0.0,1.0,86,0.00,,---,0.00,35.00,VWS V14.01,2013-07-09 11:30:00,
2013-07-09 06:35:00,74.7,70.6,29.75,NE,45,1.0,3.0,87,0.00,,---,0.00,42.00,VWS V14.01,2013-07-09 11:35:00,
2013-07-09 06:40:00,74.8,70.3,29.75,NE,45,0.0,3.0,86,0.00,,---,0.00,49.00,VWS V14.01,2013-07-09 11:40:00,
2013-07-09 06:45:00,74.9,70.4,29.74,NE,45,0.0,1.0,86,0.00,,---,0.00,57.00,VWS V14.01,2013-07-09 11:45:00,
2013-07-09 06:50:00,74.9,70.4,29.73,NE,45,0.0,1.0,86,0.00,,---,0.00,65.00,VWS V14.01,2013-07-09 11:50:00,
2013-07-09 06:55:00,74.8,70.7,29.73,NE,45,1.0,4.0,87,0.00,,---,0.00,69.00,VWS V14.01,2013-07-09 11:55:00,
2013-07-09 07:00:00,74.9,70.4,29.73,NE,45,1.0,5.0,86,0.00,,---,0.00,63.00,VWS V14.01,2013-07-09 12:00:00,
2013-07-09 07:05:00,75.1,70.6,29.73,NE,45,1.0,5.0,86,0.00,,---,0.00,54.00,VWS V14.01,2013-07-09 12:05:00,
2013-07-09 07:10:00,75.3,70.8,29.73,NE,45,0.0,1.0,86,0.00,,---,0.00,48.00,VWS V14.01,2013-07-09 12:10:00,
2013-07-09 07:15:00,75.3,70.8,29.73,NE,45,1.0,5.0,86,0.00,,---,0.00,41.00,VWS V14.01,2013-07-09 12:15:00,
2013-07-09 07:20:00,75.3,70.8,29.73,NE,45,1.0,4.0,86,0.00,,---,0.00,39.00,VWS V14.01,2013-07-09 12:20:00,
2013-07-09 07:25:00,75.3,70.8,29.73,NE,45,1.0,5.0,86,0.00,,---,0.00,39.00,VWS V14.01,2013-07-09 12:25:00,
2013-07-09 07:30:00,75.3,70.8,29.73,NE,45,0.0,4.0,86,0.00,,---,0.00,32.00,VWS V14.01,2013-07-09 12:30:00,
2013-07-09 07:35:00,75.3,70.8,29.72,NE,45,1.0,4.0,86,0.00,,---,0.00,19.00,VWS V14.01,2013-07-09 12:35:00,
2013-07-09 07:40:00,75.4,70.9,29.73,NE,45,0.0,3.0,86,0.00,,---,0.00,10.00,VWS V14.01,2013-07-09 12:40:00,
2013-07-09 07:45:00,75.3,71.2,29.72,NE,45,1.0,4.0,87,0.00,,---,0.00,9.00,VWS V14.01,2013-07-09 12:45:00,
2013-07-09 07:50:00,75.3,71.2,29.73,NE,45,1.0,6.0,87,0.00,,---,0.00,9.00,VWS V14.01,2013-07-09 12:50:00,
2013-07-09 07:55:00,75.3,71.2,29.72,NE,45,1.0,5.0,87,0.00,,---,0.00,6.00,VWS V14.01,2013-07-09 12:55:00,
2013-07-09 08:00:00,75.3,71.2,29.71,ENE,68,1.0,7.0,87,0.00,,---,0.00,5.00,VWS V14.01,2013-07-09 13:00:00,
2013-07-09 08:05:00,75.4,71.3,29.72,ENE,68,1.0,6.0,87,0.00,,---,0.00,3.00,VWS V14.01,2013-07-09 13:05:00,
2013-07-09 08:10:00,75.4,71.6,29.72,ENE,68,0.0,4.0,88,0.00,,---,0.00,0.00,VWS V14.01,2013-07-09 13:10:00,
2013-07-09 08:15:00,75.4,71.6,29.72,ENE,68,1.0,8.0,88,0.00,,---,0.00,0.00,VWS V14.01,2013-07-09 13:15:00,
2013-07-09 08:20:00,75.2,71.7,29.74,SSW,202,12.0,30.0,89,0.09,,---,0.09,0.00,VWS V14.01,2013-07-09 13:20:00,
2013-07-09 08:29:00,75.2,71.7,29.74,SSW,202,12.0,30.0,89,0.09,,---,0.09,0.00,VWS V14.01,2013-07-09 13:29:00,
2013-07-09 08:30:00,70.9,68.5,29.74,WNW,291,4.0,12.0,92,0.55,,---,0.55,0.00,VWS V14.01,2013-07-09 13:30:00,
2013-07-09 08:35:00,69.7,67.3,29.74,WSW,250,4.0,12.0,92,0.58,,---,0.58,0.00,VWS V14.01,2013-07-09 13:35:00,
2013-07-09 08:36:00,69.7,67.3,29.74,WSW,250,4.0,12.0,92,0.58,,---,0.58,0.00,VWS V14.01,2013-07-09 13:36:00,
2013-07-09 08:40:00,68.9,66.8,29.74,West,280,0.0,9.0,93,0.58,,---,0.58,5.00,VWS V14.01,2013-07-09 13:40:00,
2013-07-09 08:41:00,68.9,66.8,29.74,West,280,0.0,9.0,93,0.58,,---,0.58,5.00,VWS V14.01,2013-07-09 13:41:00,
2013-07-09 08:45:00,68.6,66.8,29.74,ENE,63,4.0,4.0,94,0.59,,---,0.59,5.00,VWS V14.01,2013-07-09 13:45:00,
2013-07-09 08:46:00,68.6,66.8,29.74,ENE,63,4.0,4.0,94,0.59,,---,0.59,5.00,VWS V14.01,2013-07-09 13:46:00,
2013-07-09 08:50:00,68.5,66.7,29.73,NE,49,0.0,4.0,94,0.60,,---,0.60,5.00,VWS V14.01,2013-07-09 13:50:00,
2013-07-09 08:51:00,68.5,66.7,29.73,NE,49,0.0,4.0,94,0.60,,---,0.60,5.00,VWS V14.01,2013-07-09 13:51:00,
2013-07-09 08:55:00,68.3,66.5,29.72,ENE,69,3.0,5.0,94,0.62,,---,0.62,5.00,VWS V14.01,2013-07-09 13:55:00,
2013-07-09 08:56:00,68.3,66.5,29.72,ENE,69,3.0,5.0,94,0.62,,---,0.62,5.00,VWS V14.01,2013-07-09 13:56:00,
2013-07-09 09:00:00,68.2,66.7,29.71,NNE,24,1.0,6.0,95,0.63,,---,0.63,7.00,VWS V14.01,2013-07-09 14:00:00,
2013-07-09 09:01:00,68.2,66.7,29.71,NNE,24,1.0,6.0,95,0.63,,---,0.63,7.00,VWS V14.01,2013-07-09 14:01:00,
2013-07-09 09:05:00,68.1,66.6,29.68,NNE,24,4.0,6.0,95,0.64,,---,0.64,9.00,VWS V14.01,2013-07-09 14:05:00,
2013-07-09 09:10:00,68.1,66.6,29.67,NNE,24,7.0,10.0,95,0.64,,---,0.64,12.00,VWS V14.01,2013-07-09 14:10:00,
2013-07-09 09:11:00,68.1,66.6,29.67,NNE,24,7.0,10.0,95,0.64,,---,0.64,12.00,VWS V14.01,2013-07-09 14:11:00,
2013-07-09 09:15:00,68.0,66.5,29.66,SE,128,9.0,11.0,95,0.64,,---,0.64,19.00,VWS V14.01,2013-07-09 14:15:00,
2013-07-09 09:16:00,68.0,66.5,29.66,SE,128,9.0,11.0,95,0.64,,---,0.64,19.00,VWS V14.01,2013-07-09 14:16:00,
2013-07-09 09:20:00,67.9,66.4,29.65,SE,138,11.0,12.0,95,0.64,,---,0.64,28.00,VWS V14.01,2013-07-09 14:20:00,
2013-07-09 09:21:00,67.9,66.4,29.65,SE,138,11.0,12.0,95,0.64,,---,0.64,28.00,VWS V14.01,2013-07-09 14:21:00,
2013-07-09 09:25:00,67.9,66.4,29.66,ESE,107,3.0,11.0,95,0.56,,---,0.65,47.00,VWS V14.01,2013-07-09 14:25:00,
2013-07-09 09:26:00,67.9,66.4,29.66,ESE,107,3.0,11.0,95,0.56,,---,0.65,47.00,VWS V14.01,2013-07-09 14:26:00,
2013-07-09 09:30:00,68.0,66.8,29.66,East,95,0.0,6.0,96,0.10,,---,0.65,81.00,VWS V14.01,2013-07-09 14:30:00,
2013-07-09 09:31:00,68.0,66.8,29.66,East,95,0.0,6.0,96,0.10,,---,0.65,81.00,VWS V14.01,2013-07-09 14:31:00,
2013-07-09 09:35:00,68.0,66.8,29.67,East,80,4.0,7.0,96,0.10,,---,0.65,102.00,VWS V14.01,2013-07-09 14:35:00,
2013-07-09 09:36:00,68.0,66.8,29.67,East,80,4.0,7.0,96,0.10,,---,0.65,102.00,VWS V14.01,2013-07-09 14:36:00,
2013-07-09 09:40:00,68.2,67.0,29.68,South,180,5.0,6.0,96,0.07,,---,0.65,91.00,VWS V14.01,2013-07-09 14:40:00,
2013-07-09 09:45:00,68.3,67.1,29.70,East,101,0.0,5.0,96,0.07,,---,0.65,84.00,VWS V14.01,2013-07-09 14:45:00,
2013-07-09 09:46:00,68.3,67.1,29.70,East,101,0.0,5.0,96,0.07,,---,0.65,84.00,VWS V14.01,2013-07-09 14:46:00,
2013-07-09 09:50:00,68.5,67.3,29.72,NNW,344,0.0,3.0,96,0.06,,---,0.65,83.00,VWS V14.01,2013-07-09 14:50:00,
2013-07-09 09:51:00,68.5,67.3,29.72,NNW,344,0.0,3.0,96,0.06,,---,0.65,83.00,VWS V14.01,2013-07-09 14:51:00,
2013-07-09 09:55:00,68.9,67.7,29.75,WSW,243,10.0,10.0,96,0.05,,---,0.65,35.00,VWS V14.01,2013-07-09 14:55:00,
2013-07-09 09:56:00,68.9,67.7,29.75,WSW,243,10.0,10.0,96,0.05,,---,0.65,35.00,VWS V14.01,2013-07-09 14:56:00,
2013-07-09 10:00:00,68.9,67.7,29.75,SW,214,3.0,11.0,96,0.03,,---,0.65,74.00,VWS V14.01,2013-07-09 15:00:00,
2013-07-09 10:01:00,68.9,67.7,29.75,SW,214,3.0,11.0,96,0.03,,---,0.65,74.00,VWS V14.01,2013-07-09 15:01:00,
2013-07-09 10:05:00,68.9,67.7,29.75,South,190,3.0,5.0,96,0.02,,---,0.65,90.00,VWS V14.01,2013-07-09 15:05:00,
2013-07-09 10:06:00,68.9,67.7,29.75,South,190,3.0,5.0,96,0.02,,---,0.65,90.00,VWS V14.01,2013-07-09 15:06:00,
2013-07-09 10:10:00,69.0,67.8,29.75,SSW,210,0.0,5.0,96,0.01,,---,0.65,88.00,VWS V14.01,2013-07-09 15:10:00,
2013-07-09 10:11:00,69.0,67.8,29.75,SSW,210,0.0,5.0,96,0.01,,---,0.65,88.00,VWS V14.01,2013-07-09 15:11:00,
2013-07-09 10:15:00,69.3,68.1,29.75,SSW,210,0.0,1.0,96,0.01,,---,0.65,200.00,VWS V14.01,2013-07-09 15:15:00,
2013-07-09 10:16:00,69.3,68.1,29.75,SSW,210,0.0,1.0,96,0.01,,---,0.65,200.00,VWS V14.01,2013-07-09 15:16:00,
2013-07-09 10:20:00,69.6,68.4,29.75,SSW,209,2.0,4.0,96,0.01,,---,0.65,299.00,VWS V14.01,2013-07-09 15:20:00,
2013-07-09 10:21:00,69.6,68.4,29.75,SSW,209,2.0,4.0,96,0.01,,---,0.65,299.00,VWS V14.01,2013-07-09 15:21:00,
2013-07-09 10:25:00,69.8,68.9,29.74,SSW,208,0.0,4.0,97,0.01,,---,0.65,329.00,VWS V14.01,2013-07-09 15:25:00,
2013-07-09 10:26:00,69.8,68.9,29.74,SSW,208,0.0,4.0,97,0.01,,---,0.65,329.00,VWS V14.01,2013-07-09 15:26:00,
2013-07-09 10:30:00,70.4,69.5,29.75,SSW,213,0.0,6.0,97,0.00,,---,0.65,362.00,VWS V14.01,2013-07-09 15:30:00,
2013-07-09 10:31:00,70.4,69.5,29.75,SSW,213,0.0,6.0,97,0.00,,---,0.65,362.00,VWS V14.01,2013-07-09 15:31:00,
2013-07-09 10:35:00,70.6,69.7,29.75,SW,215,5.0,6.0,97,0.00,,---,0.65,311.00,VWS V14.01,2013-07-09 15:35:00,
2013-07-09 10:36:00,70.6,69.7,29.75,SW,215,5.0,6.0,97,0.00,,---,0.65,311.00,VWS V14.01,2013-07-09 15:36:00,
2013-07-09 10:40:00,70.9,70.0,29.74,South,186,4.0,9.0,97,0.00,,---,0.65,816.00,VWS V14.01,2013-07-09 15:40:00,
2013-07-09 10:41:00,70.9,70.0,29.74,South,186,4.0,9.0,97,0.00,,---,0.65,816.00,VWS V14.01,2013-07-09 15:41:00,
2013-07-09 10:45:00,71.4,70.2,29.74,SSW,198,8.0,11.0,96,0.00,,---,0.65,485.00,VWS V14.01,2013-07-09 15:45:00,
2013-07-09 10:46:00,71.4,70.2,29.74,SSW,198,8.0,11.0,96,0.00,,---,0.65,485.00,VWS V14.01,2013-07-09 15:46:00,
2013-07-09 10:50:00,72.3,71.1,29.74,SW,222,4.0,9.0,96,0.00,,---,0.65,1021.00,VWS V14.01,2013-07-09 15:50:00,
2013-07-09 10:51:00,72.3,71.1,29.74,SW,222,4.0,9.0,96,0.00,,---,0.65,1021.00,VWS V14.01,2013-07-09 15:51:00,
2013-07-09 10:55:00,72.3,70.8,29.74,South,169,4.0,13.0,95,0.00,,---,0.65,308.00,VWS V14.01,2013-07-09 15:55:00,
2013-07-09 10:56:00,72.3,70.8,29.74,South,169,4.0,13.0,95,0.00,,---,0.65,308.00,VWS V14.01,2013-07-09 15:56:00,
2013-07-09 11:00:00,73.0,71.5,29.74,South,190,4.0,7.0,95,0.00,,---,0.65,1035.00,VWS V14.01,2013-07-09 16:00:00,
2013-07-09 11:01:00,73.0,71.5,29.74,South,190,4.0,7.0,95,0.00,,---,0.65,1035.00,VWS V14.01,2013-07-09 16:01:00,
2013-07-09 11:05:00,73.3,71.2,29.74,SSW,207,7.0,12.0,93,0.00,,---,0.65,374.00,VWS V14.01,2013-07-09 16:05:00,
2013-07-09 11:06:00,73.3,71.2,29.74,SSW,207,7.0,12.0,93,0.00,,---,0.65,374.00,VWS V14.01,2013-07-09 16:06:00,
2013-07-09 11:10:00,73.7,71.6,29.74,SSW,205,12.0,13.0,93,0.00,,---,0.65,610.00,VWS V14.01,2013-07-09 16:10:00,
2013-07-09 11:11:00,73.7,71.6,29.74,SSW,205,12.0,13.0,93,0.00,,---,0.65,610.00,VWS V14.01,2013-07-09 16:11:00,
2013-07-09 11:15:00,74.2,71.4,29.73,SSW,202,0.0,19.0,91,0.00,,---,0.65,610.00,VWS V14.01,2013-07-09 16:15:00,
2013-07-09 11:16:00,74.2,71.4,29.73,SSW,202,0.0,19.0,91,0.00,,---,0.65,610.00,VWS V14.01,2013-07-09 16:16:00,
2013-07-09 11:20:00,74.8,71.3,29.73,SW,229,10.0,16.0,89,0.00,,---,0.65,879.00,VWS V14.01,2013-07-09 16:20:00,
2013-07-09 11:21:00,74.8,71.3,29.73,SW,229,10.0,16.0,89,0.00,,---,0.65,879.00,VWS V14.01,2013-07-09 16:21:00,
2013-07-09 11:25:00,75.4,71.3,29.73,SW,219,12.0,16.0,87,0.00,,---,0.65,854.00,VWS V14.01,2013-07-09 16:25:00,
2013-07-09 11:26:00,75.4,71.3,29.73,SW,219,12.0,16.0,87,0.00,,---,0.65,854.00,VWS V14.01,2013-07-09 16:26:00,
2013-07-09 11:30:00,75.7,70.2,29.73,SSW,194,3.0,14.0,83,0.00,,---,0.65,861.00,VWS V14.01,2013-07-09 16:30:00,
2013-07-09 11:31:00,75.7,70.2,29.73,SSW,194,3.0,14.0,83,0.00,,---,0.65,861.00,VWS V14.01,2013-07-09 16:31:00,
2013-07-09 11:35:00,76.2,69.9,29.73,SW,221,9.0,19.0,81,0.00,,---,0.65,888.00,VWS V14.01,2013-07-09 16:35:00,
2013-07-09 11:36:00,76.2,69.9,29.73,SW,221,9.0,19.0,81,0.00,,---,0.65,888.00,VWS V14.01,2013-07-09 16:36:00,
2013-07-09 11:40:00,76.3,69.7,29.73,WSW,256,10.0,13.0,80,0.00,,---,0.65,1009.00,VWS V14.01,2013-07-09 16:40:00,
2013-07-09 11:41:00,76.3,69.7,29.73,WSW,256,10.0,13.0,80,0.00,,---,0.65,1009.00,VWS V14.01,2013-07-09 16:41:00,
2013-07-09 11:45:00,76.7,69.7,29.73,South,173,12.0,15.0,79,0.00,,---,0.65,622.00,VWS V14.01,2013-07-09 16:45:00,
2013-07-09 11:46:00,76.7,69.7,29.73,South,173,12.0,15.0,79,0.00,,---,0.65,622.00,VWS V14.01,2013-07-09 16:46:00,
2013-07-09 11:50:00,76.9,68.4,29.73,SW,229,12.0,16.0,75,0.00,,---,0.65,1083.00,VWS V14.01,2013-07-09 16:50:00,
2013-07-09 11:51:00,76.9,68.4,29.73,SW,229,12.0,16.0,75,0.00,,---,0.65,1083.00,VWS V14.01,2013-07-09 16:51:00,
2013-07-09 11:55:00,77.3,69.2,29.73,SW,219,9.0,21.0,76,0.00,,---,0.65,1271.00,VWS V14.01,2013-07-09 16:55:00,
2013-07-09 11:56:00,77.3,69.2,29.73,SW,219,9.0,21.0,76,0.00,,---,0.65,1271.00,VWS V14.01,2013-07-09 16:56:00,
2013-07-09 12:00:00,76.7,68.2,29.73,SW,222,18.0,22.0,75,0.00,,---,0.65,432.00,VWS V14.01,2013-07-09 17:00:00,
2013-07-09 12:01:00,76.7,68.2,29.73,SW,222,18.0,22.0,75,0.00,,---,0.65,432.00,VWS V14.01,2013-07-09 17:01:00,
2013-07-09 12:05:00,76.6,68.5,29.73,WSW,244,6.0,19.0,76,0.00,,---,0.65,276.00,VWS V14.01,2013-07-09 17:05:00,
2013-07-09 12:10:00,76.6,68.5,29.73,SSW,193,3.0,11.0,76,0.00,,---,0.65,295.00,VWS V14.01,2013-07-09 17:10:00,
2013-07-09 12:11:00,76.6,68.5,29.73,SSW,193,3.0,11.0,76,0.00,,---,0.65,295.00,VWS V14.01,2013-07-09 17:11:00,
2013-07-09 12:15:00,76.6,69.2,29.73,WSW,249,3.0,14.0,78,0.00,,---,0.65,350.00,VWS V14.01,2013-07-09 17:15:00,
2013-07-09 12:16:00,76.6,69.2,29.73,WSW,249,3.0,14.0,78,0.00,,---,0.65,350.00,VWS V14.01,2013-07-09 17:16:00,
2013-07-09 12:20:00,76.9,68.8,29.73,SW,221,14.0,15.0,76,0.00,,---,0.65,457.00,VWS V14.01,2013-07-09 17:20:00,
2013-07-09 12:21:00,76.9,68.8,29.73,SW,221,14.0,15.0,76,0.00,,---,0.65,457.00,VWS V14.01,2013-07-09 17:21:00,
2013-07-09 12:25:00,77.0,68.9,29.73,WSW,238,11.0,16.0,76,0.00,,---,0.65,373.00,VWS V14.01,2013-07-09 17:25:00,
2013-07-09 12:26:00,77.0,68.9,29.73,WSW,238,11.0,16.0,76,0.00,,---,0.65,373.00,VWS V14.01,2013-07-09 17:26:00,
2013-07-09 12:30:00,77.1,68.6,29.73,WSW,253,14.0,14.0,75,0.00,,---,0.65,413.00,VWS V14.01,2013-07-09 17:30:00,
2013-07-09 12:31:00,77.1,68.6,29.73,WSW,253,14.0,14.0,75,0.00,,---,0.65,413.00,VWS V14.01,2013-07-09 17:31:00,
2013-07-09 12:35:00,77.4,68.5,29.73,SSW,208,20.0,27.0,74,0.00,,---,0.65,531.00,VWS V14.01,2013-07-09 17:35:00,
2013-07-09 12:36:00,77.4,68.5,29.73,SSW,208,20.0,27.0,74,0.00,,---,0.65,531.00,VWS V14.01,2013-07-09 17:36:00,
2013-07-09 12:40:00,77.4,68.5,29.73,WSW,256,3.0,23.0,74,0.00,,---,0.65,459.00,VWS V14.01,2013-07-09 17:40:00,
2013-07-09 12:41:00,77.4,68.5,29.73,WSW,256,3.0,23.0,74,0.00,,---,0.65,459.00,VWS V14.01,2013-07-09 17:41:00,
2013-07-09 12:45:00,78.0,68.7,29.72,SW,229,14.0,16.0,73,0.00,,---,0.65,376.00,VWS V14.01,2013-07-09 17:45:00,
2013-07-09 12:46:00,78.0,68.7,29.72,SW,229,14.0,16.0,73,0.00,,---,0.65,376.00,VWS V14.01,2013-07-09 17:46:00,
2013-07-09 12:50:00,78.0,68.2,29.72,SW,229,17.0,19.0,72,0.00,,---,0.65,364.00,VWS V14.01,2013-07-09 17:50:00,
2013-07-09 12:51:00,78.0,68.2,29.72,SW,229,17.0,19.0,72,0.00,,---,0.65,364.00,VWS V14.01,2013-07-09 17:51:00,
2013-07-09 12:55:00,78.1,68.3,29.73,West,277,20.0,21.0,72,0.00,,---,0.65,410.00,VWS V14.01,2013-07-09 17:55:00,
2013-07-09 12:56:00,78.1,68.3,29.73,West,277,20.0,21.0,72,0.00,,---,0.65,410.00,VWS V14.01,2013-07-09 17:56:00,
2013-07-09 13:00:00,77.8,68.5,29.72,SW,236,6.0,21.0,73,0.00,,---,0.65,466.00,VWS V14.01,2013-07-09 18:00:00,
2013-07-09 13:01:00,77.8,68.5,29.72,SW,236,6.0,21.0,73,0.00,,---,0.65,466.00,VWS V14.01,2013-07-09 18:01:00,
2013-07-09 13:05:00,77.9,68.6,29.72,WNW,291,15.0,21.0,73,0.00,,---,0.65,327.00,VWS V14.01,2013-07-09 18:05:00,
2013-07-09 13:10:00,77.9,68.6,29.73,NW,315,10.0,23.0,73,0.00,,---,0.65,318.00,VWS V14.01,2013-07-09 18:10:00,
2013-07-09 13:11:00,77.9,68.6,29.73,NW,315,10.0,23.0,73,0.00,,---,0.65,318.00,VWS V14.01,2013-07-09 18:11:00,
2013-07-09 13:15:00,77.6,68.3,29.72,West,280,8.0,18.0,73,0.00,,---,0.65,271.00,VWS V14.01,2013-07-09 18:15:00,
2013-07-09 13:20:00,77.5,68.6,29.72,WSW,257,4.0,17.0,74,0.00,,---,0.65,199.00,VWS V14.01,2013-07-09 18:20:00,
2013-07-09 13:21:00,77.5,68.6,29.72,WSW,257,4.0,17.0,74,0.00,,---,0.65,199.00,VWS V14.01,2013-07-09 18:21:00,
2013-07-09 13:25:00,77.6,68.7,29.72,WNW,293,14.0,20.0,74,0.00,,---,0.65,371.00,VWS V14.01,2013-07-09 18:25:00,
2013-07-09 13:26:00,77.6,68.7,29.72,WNW,293,14.0,20.0,74,0.00,,---,0.65,371.00,VWS V14.01,2013-07-09 18:26:00,
2013-07-09 13:30:00,77.9,68.9,29.72,WSW,254,6.0,15.0,74,0.00,,---,0.65,272.00,VWS V14.01,2013-07-09 18:30:00,
2013-07-09 13:31:00,77.9,68.9,29.72,WSW,254,6.0,15.0,74,0.00,,---,0.65,272.00,VWS V14.01,2013-07-09 18:31:00,
2013-07-09 13:35:00,78.1,69.1,29.72,West,276,12.0,18.0,74,0.00,,---,0.65,276.00,VWS V14.01,2013-07-09 18:35:00,
2013-07-09 13:36:00,78.1,69.1,29.72,West,276,12.0,18.0,74,0.00,,---,0.65,276.00,VWS V14.01,2013-07-09 18:36:00,
2013-07-09 13:40:00,78.3,69.7,29.72,WNW,302,12.0,16.0,75,0.00,,---,0.65,404.00,VWS V14.01,2013-07-09 18:40:00,
2013-07-09 13:41:00,78.3,69.7,29.72,WNW,302,12.0,16.0,75,0.00,,---,0.65,404.00,VWS V14.01,2013-07-09 18:41:00,
2013-07-09 13:45:00,78.6,69.6,29.72,WSW,241,6.0,17.0,74,0.00,,---,0.65,441.00,VWS V14.01,2013-07-09 18:45:00,
2013-07-09 13:46:00,78.6,69.6,29.72,WSW,241,6.0,17.0,74,0.00,,---,0.65,441.00,VWS V14.01,2013-07-09 18:46:00,
2013-07-09 13:50:00,78.7,69.7,29.72,SW,214,5.0,14.0,74,0.00,,---,0.65,422.00,VWS V14.01,2013-07-09 18:50:00,
2013-07-09 13:51:00,78.7,69.7,29.72,SW,214,5.0,14.0,74,0.00,,---,0.65,422.00,VWS V14.01,2013-07-09 18:51:00,
2013-07-09 13:55:00,79.1,69.7,29.72,West,259,19.0,19.0,73,0.00,,---,0.65,399.00,VWS V14.01,2013-07-09 18:55:00,
2013-07-09 13:56:00,79.1,69.7,29.72,West,259,19.0,19.0,73,0.00,,---,0.65,399.00,VWS V14.01,2013-07-09 18:56:00,
2013-07-09 14:00:00,79.0,69.6,29.72,West,261,10.0,21.0,73,0.00,,---,0.65,645.00,VWS V14.01,2013-07-09 19:00:00,
2013-07-09 14:01:00,79.0,69.6,29.72,West,261,10.0,21.0,73,0.00,,---,0.65,645.00,VWS V14.01,2013-07-09 19:01:00,
2013-07-09 14:05:00,79.3,69.9,29.72,West,267,21.0,21.0,73,0.00,,---,0.65,454.00,VWS V14.01,2013-07-09 19:05:00,
2013-07-09 14:10:00,79.3,69.9,29.72,West,268,13.0,21.0,73,0.00,,---,0.65,471.00,VWS V14.01,2013-07-09 19:10:00,
2013-07-09 14:11:00,79.3,69.9,29.72,West,268,13.0,21.0,73,0.00,,---,0.65,471.00,VWS V14.01,2013-07-09 19:11:00,
2013-07-09 14:15:00,79.6,70.2,29.72,SW,221,11.0,20.0,73,0.00,,---,0.65,346.00,VWS V14.01,2013-07-09 19:15:00,
2013-07-09 14:16:00,79.6,70.2,29.72,SW,221,11.0,20.0,73,0.00,,---,0.65,346.00,VWS V14.01,2013-07-09 19:16:00,
2013-07-09 14:20:00,80.0,71.0,29.72,SSW,198,2.0,19.0,74,0.00,,---,0.65,958.00,VWS V14.01,2013-07-09 19:20:00,
2013-07-09 14:21:00,80.0,71.0,29.72,SSW,198,2.0,19.0,74,0.00,,---,0.65,958.00,VWS V14.01,2013-07-09 19:21:00,
2013-07-09 14:25:00,80.5,70.2,29.72,West,259,15.0,21.0,71,0.00,,---,0.65,364.00,VWS V14.01,2013-07-09 19:25:00,
2013-07-09 14:26:00,80.5,70.2,29.72,West,259,15.0,21.0,71,0.00,,---,0.65,364.00,VWS V14.01,2013-07-09 19:26:00,
2013-07-09 14:30:00,80.6,70.8,29.72,WSW,252,3.0,16.0,72,0.00,,---,0.65,392.00,VWS V14.01,2013-07-09 19:30:00,
2013-07-09 14:31:00,80.6,70.8,29.72,WSW,252,3.0,16.0,72,0.00,,---,0.65,392.00,VWS V14.01,2013-07-09 19:31:00,
2013-07-09 14:35:00,80.5,70.2,29.72,West,279,7.0,17.0,71,0.00,,---,0.65,392.00,VWS V14.01,2013-07-09 19:35:00,
2013-07-09 14:36:00,80.5,70.2,29.72,West,279,7.0,17.0,71,0.00,,---,0.65,392.00,VWS V14.01,2013-07-09 19:36:00,
2013-07-09 14:40:00,80.6,70.3,29.72,WSW,238,14.0,24.0,71,0.00,,---,0.65,1032.00,VWS V14.01,2013-07-09 19:40:00,
2013-07-09 14:41:00,80.6,70.3,29.72,WSW,238,14.0,24.0,71,0.00,,---,0.65,1032.00,VWS V14.01,2013-07-09 19:41:00,
2013-07-09 14:45:00,80.7,70.8,29.72,SSW,207,5.0,19.0,72,0.00,,---,0.65,905.00,VWS V14.01,2013-07-09 19:45:00,
2013-07-09 14:46:00,80.7,70.8,29.72,SSW,207,5.0,19.0,72,0.00,,---,0.65,905.00,VWS V14.01,2013-07-09 19:46:00,
2013-07-09 14:50:00,81.1,70.8,29.72,West,259,7.0,17.0,71,0.00,,---,0.65,926.00,VWS V14.01,2013-07-09 19:50:00,
2013-07-09 14:51:00,81.1,70.8,29.72,West,259,7.0,17.0,71,0.00,,---,0.65,926.00,VWS V14.01,2013-07-09 19:51:00,
2013-07-09 14:55:00,81.8,71.1,29.71,WNW,294,12.0,21.0,70,0.00,,---,0.65,963.00,VWS V14.01,2013-07-09 19:55:00,
2013-07-09 14:56:00,81.8,71.1,29.71,WNW,294,12.0,21.0,70,0.00,,---,0.65,963.00,VWS V14.01,2013-07-09 19:56:00,
2013-07-09 15:00:00,81.9,70.7,29.71,West,260,11.0,26.0,69,0.00,,---,0.65,946.00,VWS V14.01,2013-07-09 20:00:00,
2013-07-09 15:01:00,81.9,70.7,29.71,West,260,11.0,26.0,69,0.00,,---,0.65,946.00,VWS V14.01,2013-07-09 20:01:00,
2013-07-09 15:05:00,81.9,71.6,29.71,WNW,288,5.0,13.0,71,0.00,,---,0.65,1007.00,VWS V14.01,2013-07-09 20:05:00,
2013-07-09 15:06:00,81.9,71.6,29.71,WNW,288,5.0,13.0,71,0.00,,---,0.65,1007.00,VWS V14.01,2013-07-09 20:06:00,
2013-07-09 15:10:00,82.4,71.6,29.72,WSW,237,12.0,15.0,70,0.00,,---,0.65,1025.00,VWS V14.01,2013-07-09 20:10:00,
2013-07-09 15:11:00,82.4,71.6,29.72,WSW,237,12.0,15.0,70,0.00,,---,0.65,1025.00,VWS V14.01,2013-07-09 20:11:00,
2013-07-09 15:15:00,82.5,71.7,29.72,West,269,6.0,22.0,70,0.00,,---,0.65,476.00,VWS V14.01,2013-07-09 20:15:00,
2013-07-09 15:16:00,82.5,71.7,29.72,West,269,6.0,22.0,70,0.00,,---,0.65,476.00,VWS V14.01,2013-07-09 20:16:00,
2013-07-09 15:21:00,82.7,71.5,29.72,WSW,239,3.0,14.0,69,0.00,,---,0.65,438.00,VWS V14.01,2013-07-09 20:21:00,
2013-07-09 15:25:00,82.7,71.9,29.72,West,276,12.0,17.0,70,0.00,,---,0.65,1060.00,VWS V14.01,2013-07-09 20:25:00,
2013-07-09 15:26:00,82.7,71.9,29.72,West,276,12.0,17.0,70,0.00,,---,0.65,1060.00,VWS V14.01,2013-07-09 20:26:00,
2013-07-09 15:30:00,82.9,71.7,29.72,SW,231,5.0,17.0,69,0.00,,---,0.65,954.00,VWS V14.01,2013-07-09 20:30:00,
2013-07-09 15:31:00,82.9,71.7,29.72,SW,231,5.0,17.0,69,0.00,,---,0.65,954.00,VWS V14.01,2013-07-09 20:31:00,
2013-07-09 15:35:00,83.7,72.5,29.72,West,269,9.0,18.0,69,0.00,,---,0.65,390.00,VWS V14.01,2013-07-09 20:35:00,
2013-07-09 15:36:00,83.7,72.5,29.72,West,269,9.0,18.0,69,0.00,,---,0.65,390.00,VWS V14.01,2013-07-09 20:36:00,
2013-07-09 15:40:00,83.9,71.8,29.72,SW,222,14.0,19.0,67,0.00,,---,0.65,921.00,VWS V14.01,2013-07-09 20:40:00,
2013-07-09 15:41:00,83.9,71.8,29.72,SW,222,14.0,19.0,67,0.00,,---,0.65,921.00,VWS V14.01,2013-07-09 20:41:00,
2013-07-09 15:45:00,83.3,72.1,29.72,WSW,254,14.0,16.0,69,0.00,,---,0.65,835.00,VWS V14.01,2013-07-09 20:45:00,
2013-07-09 15:46:00,83.3,72.1,29.72,WSW,254,14.0,16.0,69,0.00,,---,0.65,835.00,VWS V14.01,2013-07-09 20:46:00,
2013-07-09 15:50:00,83.7,72.0,29.71,South,190,13.0,14.0,68,0.00,,---,0.65,854.00,VWS V14.01,2013-07-09 20:50:00,
2013-07-09 15:51:00,83.7,72.0,29.71,South,190,13.0,14.0,68,0.00,,---,0.65,854.00,VWS V14.01,2013-07-09 20:51:00,
2013-07-09 15:55:00,84.0,72.3,29.71,WNW,285,9.0,13.0,68,0.00,,---,0.65,860.00,VWS V14.01,2013-07-09 20:55:00,
2013-07-09 15:56:00,84.0,72.3,29.71,WNW,285,9.0,13.0,68,0.00,,---,0.65,860.00,VWS V14.01,2013-07-09 20:56:00,
2013-07-09 16:00:00,84.5,72.3,29.71,WSW,239,4.0,14.0,67,0.00,,---,0.65,840.00,VWS V14.01,2013-07-09 21:00:00,
2013-07-09 16:01:00,84.5,72.3,29.71,WSW,239,4.0,14.0,67,0.00,,---,0.65,840.00,VWS V14.01,2013-07-09 21:01:00,
2013-07-09 16:05:00,84.6,72.0,29.71,West,281,12.0,14.0,66,0.00,,---,0.65,854.00,VWS V14.01,2013-07-09 21:05:00,
2013-07-09 16:10:00,84.8,72.6,29.71,WSW,253,15.0,15.0,67,0.00,,---,0.65,891.00,VWS V14.01,2013-07-09 21:10:00,
2013-07-09 16:11:00,84.8,72.6,29.71,WSW,253,15.0,15.0,67,0.00,,---,0.65,891.00,VWS V14.01,2013-07-09 21:11:00,
2013-07-09 16:15:00,85.2,72.6,29.71,WNW,290,10.0,16.0,66,0.00,,---,0.65,863.00,VWS V14.01,2013-07-09 21:15:00,
2013-07-09 16:16:00,85.2,72.6,29.71,WNW,290,10.0,16.0,66,0.00,,---,0.65,863.00,VWS V14.01,2013-07-09 21:16:00,
2013-07-09 16:20:00,84.9,72.3,29.71,WNW,302,6.0,10.0,66,0.00,,---,0.65,116.00,VWS V14.01,2013-07-09 21:20:00,
2013-07-09 16:21:00,84.9,72.3,29.71,WNW,302,6.0,10.0,66,0.00,,---,0.65,116.00,VWS V14.01,2013-07-09 21:21:00,
2013-07-09 16:25:00,84.3,72.2,29.71,WSW,245,7.0,13.0,67,0.00,,---,0.65,320.00,VWS V14.01,2013-07-09 21:25:00,
2013-07-09 16:26:00,84.3,72.2,29.71,WSW,245,7.0,13.0,67,0.00,,---,0.65,320.00,VWS V14.01,2013-07-09 21:26:00,
2013-07-09 16:30:00,84.3,72.2,29.71,West,269,9.0,19.0,67,0.00,,---,0.65,740.00,VWS V14.01,2013-07-09 21:30:00,
2013-07-09 16:31:00,84.3,72.2,29.71,West,269,9.0,19.0,67,0.00,,---,0.65,740.00,VWS V14.01,2013-07-09 21:31:00,
2013-07-09 16:35:00,84.7,72.5,29.71,WSW,251,5.0,16.0,67,0.00,,---,0.65,559.00,VWS V14.01,2013-07-09 21:35:00,
2013-07-09 16:36:00,84.7,72.5,29.71,WSW,251,5.0,16.0,67,0.00,,---,0.65,559.00,VWS V14.01,2013-07-09 21:36:00,
2013-07-09 16:40:00,84.7,72.5,29.71,West,263,3.0,17.0,67,0.00,,---,0.65,244.00,VWS V14.01,2013-07-09 21:40:00,
2013-07-09 16:41:00,84.7,72.5,29.71,West,263,3.0,17.0,67,0.00,,---,0.65,244.00,VWS V14.01,2013-07-09 21:41:00,
2013-07-09 16:45:00,84.1,72.4,29.72,WNW,282,6.0,19.0,68,0.00,,---,0.65,169.00,VWS V14.01,2013-07-09 21:45:00,
2013-07-09 16:46:00,84.1,72.4,29.72,WNW,282,6.0,19.0,68,0.00,,---,0.65,169.00,VWS V14.01,2013-07-09 21:46:00,
2013-07-09 16:50:00,84.3,73.0,29.72,West,265,9.0,13.0,69,0.00,,---,0.65,779.00,VWS V14.01,2013-07-09 21:50:00,
2013-07-09 16:51:00,84.3,73.0,29.72,West,265,9.0,13.0,69,0.00,,---,0.65,779.00,VWS V14.01,2013-07-09 21:51:00,
2013-07-09 16:55:00,85.0,73.3,29.71,SW,231,10.0,16.0,68,0.00,,---,0.65,679.00,VWS V14.01,2013-07-09 21:55:00,
2013-07-09 16:56:00,85.0,73.3,29.71,SW,231,10.0,16.0,68,0.00,,---,0.65,679.00,VWS V14.01,2013-07-09 21:56:00,
2013-07-09 17:00:00,85.4,72.8,29.71,WSW,250,3.0,13.0,66,0.00,,---,0.65,197.00,VWS V14.01,2013-07-09 22:00:00,
2013-07-09 17:01:00,85.4,72.8,29.71,WSW,250,3.0,13.0,66,0.00,,---,0.65,197.00,VWS V14.01,2013-07-09 22:01:00,
2013-07-09 17:05:00,85.1,72.5,29.72,North,350,2.0,12.0,66,0.00,,---,0.65,295.00,VWS V14.01,2013-07-09 22:05:00,
2013-07-09 17:06:00,85.1,72.5,29.72,North,350,2.0,12.0,66,0.00,,---,0.65,295.00,VWS V14.01,2013-07-09 22:06:00,
2013-07-09 17:10:00,85.3,72.7,29.71,WSW,257,3.0,15.0,66,0.00,,---,0.65,213.00,VWS V14.01,2013-07-09 22:10:00,
2013-07-09 17:11:00,85.3,72.7,29.71,WSW,257,3.0,15.0,66,0.00,,---,0.65,213.00,VWS V14.01,2013-07-09 22:11:00,
2013-07-09 17:15:00,85.6,72.5,29.71,SW,223,10.0,17.0,65,0.00,,---,0.65,654.00,VWS V14.01,2013-07-09 22:15:00,
2013-07-09 17:16:00,85.6,72.5,29.71,SW,223,10.0,17.0,65,0.00,,---,0.65,654.00,VWS V14.01,2013-07-09 22:16:00,
2013-07-09 17:20:00,85.7,71.7,29.71,WSW,249,7.0,21.0,63,0.00,,---,0.65,608.00,VWS V14.01,2013-07-09 22:20:00,
2013-07-09 17:21:00,85.7,71.7,29.71,WSW,249,7.0,21.0,63,0.00,,---,0.65,608.00,VWS V14.01,2013-07-09 22:21:00,
2013-07-09 17:25:00,85.6,72.0,29.71,WNW,294,6.0,13.0,64,0.00,,---,0.65,571.00,VWS V14.01,2013-07-09 22:25:00,
2013-07-09 17:26:00,85.6,72.0,29.71,WNW,294,6.0,13.0,64,0.00,,---,0.65,571.00,VWS V14.01,2013-07-09 22:26:00,
2013-07-09 17:30:00,85.9,71.8,29.71,West,269,5.0,17.0,63,0.00,,---,0.65,564.00,VWS V14.01,2013-07-09 22:30:00,
2013-07-09 17:31:00,85.9,71.8,29.71,West,269,5.0,17.0,63,0.00,,---,0.65,564.00,VWS V14.01,2013-07-09 22:31:00,
2013-07-09 17:35:00,86.1,72.0,29.71,WSW,239,3.0,19.0,63,0.00,,---,0.65,533.00,VWS V14.01,2013-07-09 22:35:00,
2013-07-09 17:36:00,86.1,72.0,29.71,WSW,239,3.0,19.0,63,0.00,,---,0.65,533.00,VWS V14.01,2013-07-09 22:36:00,
2013-07-09 17:40:00,86.0,71.5,29.72,WNW,294,16.0,19.0,62,0.00,,---,0.65,515.00,VWS V14.01,2013-07-09 22:40:00,
2013-07-09 17:41:00,86.0,71.5,29.72,WNW,294,16.0,19.0,62,0.00,,---,0.65,515.00,VWS V14.01,2013-07-09 22:41:00,
2013-07-09 17:45:00,85.9,71.4,29.72,SW,233,4.0,17.0,62,0.00,,---,0.65,183.00,VWS V14.01,2013-07-09 22:45:00,
2013-07-09 17:46:00,85.9,71.4,29.72,SW,233,4.0,17.0,62,0.00,,---,0.65,183.00,VWS V14.01,2013-07-09 22:46:00,
2013-07-09 17:50:00,85.9,71.8,29.72,SSW,192,11.0,19.0,63,0.00,,---,0.65,483.00,VWS V14.01,2013-07-09 22:50:00,
2013-07-09 17:51:00,85.9,71.8,29.72,SSW,192,11.0,19.0,63,0.00,,---,0.65,483.00,VWS V14.01,2013-07-09 22:51:00,
2013-07-09 17:55:00,85.8,71.8,29.72,WNW,283,12.0,15.0,63,0.00,,---,0.65,496.00,VWS V14.01,2013-07-09 22:55:00,
2013-07-09 17:56:00,85.8,71.8,29.72,WNW,283,12.0,15.0,63,0.00,,---,0.65,496.00,VWS V14.01,2013-07-09 22:56:00,
2013-07-09 18:00:00,85.8,71.3,29.72,WSW,252,5.0,17.0,62,0.00,,---,0.65,445.00,VWS V14.01,2013-07-09 23:00:00,
2013-07-09 18:01:00,85.8,71.3,29.72,WSW,252,5.0,17.0,62,0.00,,---,0.65,445.00,VWS V14.01,2013-07-09 23:01:00,
2013-07-09 18:05:00,86.0,71.5,29.72,WSW,247,12.0,20.0,62,0.00,,---,0.65,441.00,VWS V14.01,2013-07-09 23:05:00,
2013-07-09 18:10:00,85.8,71.8,29.72,WNW,294,7.0,16.0,63,0.00,,---,0.65,454.00,VWS V14.01,2013-07-09 23:10:00,
2013-07-09 18:11:00,85.8,71.8,29.72,WNW,294,7.0,16.0,63,0.00,,---,0.65,454.00,VWS V14.01,2013-07-09 23:11:00,
2013-07-09 18:15:00,85.2,71.2,29.72,West,259,9.0,14.0,63,0.00,,---,0.65,438.00,VWS V14.01,2013-07-09 23:15:00,
2013-07-09 18:16:00,85.2,71.2,29.72,West,259,9.0,14.0,63,0.00,,---,0.65,438.00,VWS V14.01,2013-07-09 23:16:00,
2013-07-09 18:20:00,85.4,71.4,29.72,West,278,5.0,14.0,63,0.00,,---,0.65,422.00,VWS V14.01,2013-07-09 23:20:00,
2013-07-09 18:21:00,85.4,71.4,29.72,West,278,5.0,14.0,63,0.00,,---,0.65,422.00,VWS V14.01,2013-07-09 23:21:00,
2013-07-09 18:25:00,85.5,71.0,29.72,West,272,17.0,20.0,62,0.00,,---,0.65,415.00,VWS V14.01,2013-07-09 23:25:00,
2013-07-09 18:26:00,85.5,71.0,29.72,West,272,17.0,20.0,62,0.00,,---,0.65,415.00,VWS V14.01,2013-07-09 23:26:00,
2013-07-09 18:30:00,85.3,70.3,29.72,WNW,290,9.0,20.0,61,0.00,,---,0.65,341.00,VWS V14.01,2013-07-09 23:30:00,
2013-07-09 18:31:00,85.3,70.3,29.72,WNW,290,9.0,20.0,61,0.00,,---,0.65,341.00,VWS V14.01,2013-07-09 23:31:00,
2013-07-09 18:35:00,85.5,70.5,29.72,WSW,252,6.0,20.0,61,0.00,,---,0.65,329.00,VWS V14.01,2013-07-09 23:35:00,
2013-07-09 18:36:00,85.5,70.5,29.72,WSW,252,6.0,20.0,61,0.00,,---,0.65,329.00,VWS V14.01,2013-07-09 23:36:00,
2013-07-09 18:40:00,85.5,69.6,29.72,West,268,11.0,17.0,59,0.00,,---,0.65,315.00,VWS V14.01,2013-07-09 23:40:00,
2013-07-09 18:41:00,85.5,69.6,29.72,West,268,11.0,17.0,59,0.00,,---,0.65,315.00,VWS V14.01,2013-07-09 23:41:00,
2013-07-09 18:45:00,85.1,69.2,29.73,West,279,12.0,15.0,59,0.00,,---,0.65,295.00,VWS V14.01,2013-07-09 23:45:00,
2013-07-09 18:46:00,85.1,69.2,29.73,West,279,12.0,15.0,59,0.00,,---,0.65,295.00,VWS V14.01,2013-07-09 23:46:00,
2013-07-09 18:50:00,84.8,68.9,29.73,WSW,253,11.0,21.0,59,0.00,,---,0.65,279.00,VWS V14.01,2013-07-09 23:50:00,
2013-07-09 18:51:00,84.8,68.9,29.73,WSW,253,11.0,21.0,59,0.00,,---,0.65,279.00,VWS V14.01,2013-07-09 23:51:00,
2013-07-09 18:55:00,84.8,68.9,29.73,WSW,256,14.0,14.0,59,0.00,,---,0.65,267.00,VWS V14.01,2013-07-09 23:55:00,
2013-07-09 18:56:00,84.8,68.9,29.73,WSW,256,14.0,14.0,59,0.00,,---,0.65,267.00,VWS V14.01,2013-07-09 23:56:00,
2013-07-09 19:00:00,84.8,68.9,29.73,NW,307,2.0,20.0,59,0.00,,---,0.65,255.00,VWS V14.01,2013-07-10 00:00:00,
2013-07-09 19:01:00,84.8,68.9,29.73,NW,307,2.0,20.0,59,0.00,,---,0.65,255.00,VWS V14.01,2013-07-10 00:01:00,
2013-07-09 19:05:00,84.8,68.9,29.73,West,261,7.0,15.0,59,0.00,,---,0.65,239.00,VWS V14.01,2013-07-10 00:05:00,
2013-07-09 19:10:00,84.5,68.6,29.73,West,279,12.0,19.0,59,0.00,,---,0.65,225.00,VWS V14.01,2013-07-10 00:10:00,
2013-07-09 19:11:00,84.5,68.6,29.73,West,279,12.0,19.0,59,0.00,,---,0.65,225.00,VWS V14.01,2013-07-10 00:11:00,
2013-07-09 19:15:00,84.3,68.9,29.73,West,265,8.0,17.0,60,0.00,,---,0.65,211.00,VWS V14.01,2013-07-10 00:15:00,
2013-07-09 19:16:00,84.3,68.9,29.73,West,265,8.0,17.0,60,0.00,,---,0.65,211.00,VWS V14.01,2013-07-10 00:16:00,
2013-07-09 19:20:00,84.3,69.4,29.74,West,279,5.0,14.0,61,0.00,,---,0.65,197.00,VWS V14.01,2013-07-10 00:20:00,
2013-07-09 19:21:00,84.3,69.4,29.74,West,279,5.0,14.0,61,0.00,,---,0.65,197.00,VWS V14.01,2013-07-10 00:21:00,
2013-07-09 19:25:00,84.3,69.4,29.74,WNW,286,10.0,13.0,61,0.00,,---,0.65,186.00,VWS V14.01,2013-07-10 00:25:00,
2013-07-09 19:26:00,84.3,69.4,29.74,WNW,286,10.0,13.0,61,0.00,,---,0.65,186.00,VWS V14.01,2013-07-10 00:26:00,
2013-07-09 19:30:00,84.0,69.6,29.74,West,270,4.0,15.0,62,0.00,,---,0.65,171.00,VWS V14.01,2013-07-10 00:30:00,
2013-07-09 19:31:00,84.0,69.6,29.74,West,270,4.0,15.0,62,0.00,,---,0.65,171.00,VWS V14.01,2013-07-10 00:31:00,
2013-07-09 19:35:00,84.0,69.6,29.73,WNW,296,5.0,9.0,62,0.00,,---,0.65,158.00,VWS V14.01,2013-07-10 00:35:00,
2013-07-09 19:36:00,84.0,69.6,29.73,WNW,296,5.0,9.0,62,0.00,,---,0.65,158.00,VWS V14.01,2013-07-10 00:36:00,
2013-07-09 19:40:00,84.1,69.7,29.74,WNW,288,10.0,11.0,62,0.00,,---,0.65,144.00,VWS V14.01,2013-07-10 00:40:00,
2013-07-09 19:41:00,84.1,69.7,29.74,WNW,288,10.0,11.0,62,0.00,,---,0.65,144.00,VWS V14.01,2013-07-10 00:41:00,
2013-07-09 19:45:00,83.7,69.3,29.74,West,263,10.0,14.0,62,0.00,,---,0.65,127.00,VWS V14.01,2013-07-10 00:45:00,
2013-07-09 19:46:00,83.7,69.3,29.74,West,263,10.0,14.0,62,0.00,,---,0.65,127.00,VWS V14.01,2013-07-10 00:46:00,
2013-07-09 19:50:00,83.3,68.9,29.74,WNW,286,14.0,19.0,62,0.00,,---,0.65,121.00,VWS V14.01,2013-07-10 00:50:00,
2013-07-09 19:51:00,83.3,68.9,29.74,WNW,286,14.0,19.0,62,0.00,,---,0.65,121.00,VWS V14.01,2013-07-10 00:51:00,
2013-07-09 19:55:00,83.1,69.2,29.74,West,270,5.0,18.0,63,0.00,,---,0.65,112.00,VWS V14.01,2013-07-10 00:55:00,
2013-07-09 20:00:00,82.8,68.9,29.74,West,270,9.0,17.0,63,0.00,,---,0.65,104.00,VWS V14.01,2013-07-10 01:00:00,
2013-07-09 20:05:00,82.5,68.6,29.75,West,270,8.0,22.0,63,0.00,,---,0.65,91.00,VWS V14.01,2013-07-10 01:05:00,
2013-07-09 20:10:00,82.2,68.4,29.75,West,270,8.0,17.0,63,0.00,,---,0.65,78.00,VWS V14.01,2013-07-10 01:10:00,
2013-07-09 20:15:00,82.0,68.2,29.75,West,270,8.0,19.0,63,0.00,,---,0.65,66.00,VWS V14.01,2013-07-10 01:15:00,
2013-07-09 20:20:00,81.7,68.3,29.75,West,270,7.0,20.0,64,0.00,,---,0.65,54.00,VWS V14.01,2013-07-10 01:20:00,
2013-07-09 20:25:00,81.3,68.0,29.76,WNW,292,7.0,17.0,64,0.00,,---,0.65,45.00,VWS V14.01,2013-07-10 01:25:00,
2013-07-09 20:30:00,81.1,68.2,29.76,West,270,5.0,13.0,65,0.00,,---,0.65,36.00,VWS V14.01,2013-07-10 01:30:00,
2013-07-09 20:35:00,80.7,68.3,29.76,West,270,6.0,14.0,66,0.00,,---,0.65,23.00,VWS V14.01,2013-07-10 01:35:00,
2013-07-09 20:40:00,80.4,68.4,29.76,West,270,4.0,12.0,67,0.00,,---,0.65,14.00,VWS V14.01,2013-07-10 01:40:00,
2013-07-09 20:45:00,80.1,68.2,29.76,West,270,6.0,13.0,67,0.00,,---,0.65,9.00,VWS V14.01,2013-07-10 01:45:00,
2013-07-09 20:50:00,79.8,67.9,29.76,West,270,7.0,15.0,67,0.00,,---,0.65,9.00,VWS V14.01,2013-07-10 01:50:00,
2013-07-09 21:00:00,79.4,67.5,29.77,West,270,7.0,16.0,67,0.00,,---,0.65,6.00,VWS V14.01,2013-07-10 02:00:00,
2013-07-09 21:05:00,79.2,67.3,29.77,West,270,6.0,13.0,67,0.00,,---,0.65,3.00,VWS V14.01,2013-07-10 02:05:00,
2013-07-09 21:10:00,79.0,67.1,29.77,West,270,5.0,12.0,67,0.00,,---,0.65,0.00,VWS V14.01,2013-07-10 02:10:00,
2013-07-09 21:15:00,78.7,67.3,29.77,West,270,3.0,6.0,68,0.00,,---,0.65,0.00,VWS V14.01,2013-07-10 02:15:00,
2013-07-09 21:20:00,78.6,67.2,29.77,West,270,2.0,7.0,68,0.00,,---,0.65,0.00,VWS V14.01,2013-07-10 02:20:00,
2013-07-09 21:25:00,78.2,67.2,29.78,West,270,2.0,10.0,69,0.00,,---,0.65,0.00,VWS V14.01,2013-07-10 02:25:00,
2013-07-09 21:30:00,77.9,67.3,29.78,WNW,292,2.0,5.0,70,0.00,,---,0.65,0.00,VWS V14.01,2013-07-10 02:30:00,
2013-07-09 21:35:00,77.6,67.5,29.78,NW,315,2.0,9.0,71,0.00,,---,0.65,0.00,VWS V14.01,2013-07-10 02:35:00,
2013-07-09 21:40:00,77.4,67.3,29.78,West,270,3.0,11.0,71,0.00,,---,0.65,0.00,VWS V14.01,2013-07-10 02:40:00,
2013-07-09 21:45:00,77.2,67.1,29.78,West,270,3.0,9.0,71,0.00,,---,0.65,0.00,VWS V14.01,2013-07-10 02:45:00,
2013-07-09 21:50:00,77.1,67.0,29.79,WNW,292,4.0,13.0,71,0.00,,---,0.65,0.00,VWS V14.01,2013-07-10 02:50:00,
2013-07-09 21:55:00,77.0,66.9,29.79,WNW,292,3.0,11.0,71,0.00,,---,0.65,0.00,VWS V14.01,2013-07-10 02:55:00,
2013-07-09 22:00:00,76.8,66.3,29.79,WNW,292,6.0,14.0,70,0.00,,---,0.65,0.00,VWS V14.01,2013-07-10 03:00:00,
2013-07-09 22:05:00,76.6,66.1,29.78,West,270,5.0,10.0,70,0.00,,---,0.65,0.00,VWS V14.01,2013-07-10 03:05:00,
2013-07-09 22:10:00,76.5,66.0,29.79,WNW,292,4.0,10.0,70,0.00,,---,0.65,0.00,VWS V14.01,2013-07-10 03:10:00,
2013-07-09 22:15:00,76.3,66.2,29.79,WNW,292,5.0,11.0,71,0.00,,---,0.65,0.00,VWS V14.01,2013-07-10 03:15:00,
2013-07-09 22:20:00,76.1,66.0,29.80,WNW,292,3.0,9.0,71,0.00,,---,0.65,0.00,VWS V14.01,2013-07-10 03:20:00,
2013-07-09 22:25:00,75.9,65.8,29.80,West,270,6.0,11.0,71,0.00,,---,0.65,0.00,VWS V14.01,2013-07-10 03:25:00,
2013-07-09 22:30:00,75.8,66.1,29.80,NW,315,4.0,13.0,72,0.00,,---,0.65,0.00,VWS V14.01,2013-07-10 03:30:00,
2013-07-09 22:35:00,75.6,65.9,29.80,West,270,5.0,15.0,72,0.00,,---,0.65,0.00,VWS V14.01,2013-07-10 03:35:00,
2013-07-09 22:40:00,75.4,65.8,29.81,WNW,292,4.0,13.0,72,0.00,,---,0.65,0.00,VWS V14.01,2013-07-10 03:40:00,
2013-07-09 22:45:00,75.2,66.0,29.81,WNW,292,5.0,11.0,73,0.00,,---,0.65,0.00,VWS V14.01,2013-07-10 03:45:00,
2013-07-09 22:50:00,75.0,65.8,29.81,West,270,6.0,13.0,73,0.00,,---,0.65,0.00,VWS V14.01,2013-07-10 03:50:00,
2013-07-09 22:55:00,74.8,65.6,29.81,West,270,5.0,11.0,73,0.00,,---,0.65,0.00,VWS V14.01,2013-07-10 03:55:00,
2013-07-09 23:00:00,74.7,65.9,29.81,West,270,5.0,13.0,74,0.00,,---,0.65,0.00,VWS V14.01,2013-07-10 04:00:00,
2013-07-09 23:05:00,74.5,65.3,29.81,WNW,292,7.0,15.0,73,0.00,,---,0.65,0.00,VWS V14.01,2013-07-10 04:05:00,
2013-07-09 23:10:00,74.3,65.1,29.81,WNW,292,5.0,14.0,73,0.00,,---,0.65,0.00,VWS V14.01,2013-07-10 04:10:00,
2013-07-09 23:15:00,74.2,64.6,29.81,WNW,292,7.0,16.0,72,0.00,,---,0.65,0.00,VWS V14.01,2013-07-10 04:15:00,
2013-07-09 23:29:00,74.1,64.5,29.81,WNW,292,6.0,15.0,72,0.00,,---,0.65,0.00,VWS V14.01,2013-07-10 04:29:00,
2013-07-09 23:31:00,73.7,64.5,29.82,WNW,294,2.0,6.0,73,0.00,,---,0.65,0.00,VWS V14.01,2013-07-10 04:31:00,
2013-07-09 23:36:00,73.6,64.8,29.82,WNW,284,6.0,17.0,74,0.00,,---,0.65,0.00,VWS V14.01,2013-07-10 04:36:00,
2013-07-09 23:41:00,73.4,64.6,29.82,WNW,288,13.0,18.0,74,0.00,,---,0.65,0.00,VWS V14.01,2013-07-10 04:41:00,
2013-07-09 23:46:00,73.2,64.4,29.83,WNW,303,6.0,17.0,74,0.00,,---,0.65,0.00,VWS V14.01,2013-07-10 04:46:00,
2013-07-09 23:51:00,73.0,64.6,29.83,West,268,5.0,13.0,75,0.00,,---,0.65,0.00,VWS V14.01,2013-07-10 04:51:00,
2013-07-09 23:56:00,72.9,64.9,29.83,WNW,288,3.0,14.0,76,0.00,,---,0.65,0.00,VWS V14.01,2013-07-10 04:56:00,